Location: Cluj-Napoca
(46.7712°N, 23.6236°E)
Time: 05:22:33
(UTC+03:00)

Tiangong - Visible Passes

Search period start: 21 September 2021 00:00
Search period end: 01 October 2021 00:00
Orbit: 380 x 385 km, 41.5° (Epoch: 20 September)

Date Brightness Start Highest point End Pass type
(mag) Time Alt. Az. Time Alt. Az. Time Alt. Az.
27 Sep 3.7 06:02:11 10° S 06:03:50 13° SSE 06:05:29 10° SE visible
28 Sep 2.9 06:37:26 10° SW 06:40:03 24° SSE 06:42:40 10° ESE visible
29 Sep 3.1 05:39:38 18° S 05:40:05 19° SSE 05:42:23 10° ESE visible
30 Sep 2.5 06:14:36 17° SW 06:16:23 28° S 06:19:09 10° ESE visible
